Regional Weather Roundup
Issued by NWS

Home | Current Version | Previous Version | Text Only | Print | Product List | Glossary On
Versions: 1 2 3 4 5 6 7 8 9 10 11 12 13 14 15 16 17 18 19 20 21 22 23 24 25 26 27 28 29 30 31 32 33 34 35 36 37 38 39 40 41 42 43 44 45 46 47 48 49 50
000
ASUS43 KLSX 282159
RWRMO

WEATHER SUMMARY FOR MISSOURI
NATIONAL WEATHER SERVICE SPRINGFIELD MO
500 PM CDT MON JUL 28 2014

NOTE: "FAIR" INDICATES FEW OR NO CLOUDS BELOW 12,000 FEET WITH NO
       SIGNIFICANT WEATHER AND/OR OBSTRUCTIONS TO VISIBILITY.
       CURRENT SKY AND/OR WEATHER CONDITIONS ARE NOT AVAILABLE FOR
       CHILLICOTHE AND FARMINGTON.

MOZ001>031-035>038-043-044-053-054-282300-
...NORTHERN AND WESTERN MISSOURI...

CITY           SKY/WX    TMP DP  RH WIND       PRES   REMARKS
KANSAS CTY INT PTSUNNY   79  60  52 N10       30.18F
KANSAS C DTWN  PTSUNNY   80  58  46 N10       30.16F
LEE`S SUMMIT   MOSUNNY   79  57  46 N12       30.18F
ST JOSEPH      MOSUNNY   78  62  57 N10       30.19F
CHILLICOTHE      N/A     80  56  43 VRB6      30.17F
KIRKSVILLE     MOSUNNY   77  55  46 N10       30.18S

$$
MOZ066>068-077>081-088>096-101>105-282300-
...SOUTHWEST MISSOURI...

CITY           SKY/WX    TMP DP  RH WIND       PRES   REMARKS
SPRINGFIELD    MOSUNNY   82  56  40 N15       30.14F
JOPLIN         SUNNY     85  55  35 N7G20     30.15F

$$
MOZ032>034-039>042-045>050-055>058-069>072-282300-
...CENTRAL MISSOURI...

CITY           SKY/WX    TMP DP  RH WIND       PRES   REMARKS
COLUMBIA       MOSUNNY   77  57  50 N14       30.14S
JEFFERSON CITY MOSUNNY   78  58  49 NW8       30.12S
ROLLA          MOSUNNY   78  56  46 NW14G22   30.11S
SEDALIA        PTSUNNY   81  61  50 N14       30.16S
OSAGE BEACH    MOSUNNY   79  55  44 N10       30.12S

$$
MOZ051-052-059>065-282300-
...EAST CENTRAL MISSOURI...

CITY           SKY/WX    TMP DP  RH WIND       PRES   REMARKS
ST LOUIS INTL  PTSUNNY   77  58  51 N12       30.10F
SPIRIT OF STL  PTSUNNY   76  58  53 NW15G21   30.10S
ST CHARLES     CLOUDY    73  57  57 N10       30.10F

$$
MOZ072>076-082>087-097>100-106>115-282300-
...SOUTH CENTRAL AND SOUTHEAST MISSOURI...

CITY           SKY/WX    TMP DP  RH WIND       PRES   REMARKS
CAPE GIRARDEAU MOSUNNY   82  61  48 N8        30.04F
FARMINGTON     MOSUNNY   77  59  53 N9        30.10F
POPLAR BLUFF   MOSUNNY   84  60  44 N7        30.02F
WEST PLAINS    MOSUNNY   83  57  41 NW15      30.11F

$$



USA.gov is the U.S. government's official web portal to all federal, state and local government web resources and services.